Photometre #645[NE_1.6] Timisoara AOT

File : 20220925_645.hum

25/09/2022,05:17:05,TEMP=9.8,BA=5.52,STAT.A=0.0,ExtBa=13.10
25/09/2022,05:18:32,TEMP=10.0,BA=5.52,STAT.b=0.0
25/09/2022,05:20:47,TEMP=10.1,BA=5.48,STAT.A=0.0,ExtBa=12.95
25/09/2022,05:22:14,TEMP=10.2,BA=5.48,STAT.b=0.0
25/09/2022,05:25:06,TEMP=10.1,BA=5.48,STAT.A=0.0,ExtBa=12.91
25/09/2022,05:29:59,TEMP=10.1,BA=5.48,STAT.A=0.0,ExtBa=12.93
25/09/2022,05:31:27,TEMP=10.3,BA=5.40,STAT.b=0.0
25/09/2022,05:36:29,TEMP=10.2,BA=5.40,STAT.A=0.0,ExtBa=12.92
25/09/2022,05:37:57,TEMP=10.4,BA=5.40,STAT.b=0.0
25/09/2022,05:44:10,TEMP=10.4,BA=5.60,STAT.A=0.0,ExtBa=12.93
25/09/2022,05:45:40,TEMP=10.5,BA=5.60,STAT.b=0.0
25/09/2022,05:53:54,TEMP=10.6,BA=5.64,STAT.B=0.0,ExtBa=12.98
25/09/2022,06:03:55,TEMP=11.2,BA=5.52,STAT.A=0.0,ExtBa=12.80
25/09/2022,06:05:23,TEMP=11.3,BA=5.52,STAT.b=0.0
25/09/2022,06:06:02,TEMP=11.4,BA=5.52,STAT.A=0.0,ExtBa=12.85
25/09/2022,06:09:42,TEMP=11.5,BA=5.52,STAT.A=0.0,ExtBa=12.93
25/09/2022,06:16:26,TEMP=11.5,BA=5.60,STAT.A=0.0,ExtBa=13.00
25/09/2022,06:24:12,TEMP=11.7,BA=5.64,STAT.C=0.0,ExtBa=12.98
25/09/2022,06:32:59,TEMP=11.9,BA=5.64,STAT.A=0.0,ExtBa=13.06
25/09/2022,06:43:58,TEMP=12.4,BA=5.64,STAT.A=0.0,ExtBa=13.18
25/09/2022,06:45:30,TEMP=12.6,BA=5.64,STAT.b=0.0
25/09/2022,06:56:55,TEMP=13.3,BA=5.64,STAT.A=0.0,ExtBa=13.58
25/09/2022,07:13:00,TEMP=14.6,BA=5.64,STAT.A=0.0,ExtBa=13.93
25/09/2022,07:27:46,TEMP=15.2,BA=5.64,STAT.F,ExtBa=13.79
25/09/2022,07:37:07,TEMP=15.6,BA=5.60,STAT.b=0.0
25/09/2022,07:42:44,TEMP=15.7,BA=5.64,STAT.D=0.0,ExtBa=13.85
25/09/2022,07:57:37,TEMP=15.9,BA=5.64,STAT.b=0.0
25/09/2022,08:12:27,TEMP=17.7,BA=5.64,STAT.D=0.0,ExtBa=14.53
25/09/2022,08:27:29,TEMP=19.2,BA=5.64,STAT.F,ExtBa=14.67
25/09/2022,08:49:29,TEMP=19.5,BA=5.56,STAT.b=0.0
25/09/2022,08:57:29,TEMP=19.5,BA=5.64,STAT.D=0.0,ExtBa=13.91
25/09/2022,09:12:27,TEMP=20.0,BA=5.64,STAT.D=0.0,ExtBa=14.21
25/09/2022,09:27:45,TEMP=20.7,BA=5.64,STAT.F,ExtBa=14.42
25/09/2022,09:29:13,TEMP=21.0,BA=5.64,STAT.b=0.0
25/09/2022,09:42:44,TEMP=21.3,BA=5.64,STAT.D=0.0,ExtBa=14.63
25/09/2022,09:57:36,TEMP=21.5,BA=5.64,STAT.b=0.0
25/09/2022,10:12:27,TEMP=22.0,BA=5.64,STAT.D=0.0,ExtBa=14.57
25/09/2022,10:13:56,TEMP=22.3,BA=5.64,STAT.b=0.0
25/09/2022,10:27:45,TEMP=22.2,BA=5.64,STAT.F,ExtBa=14.54
25/09/2022,10:29:11,TEMP=22.3,BA=5.64,STAT.b=0.0
25/09/2022,10:42:43,TEMP=22.4,BA=5.64,STAT.D=0.0,ExtBa=14.47
25/09/2022,10:44:12,TEMP=22.6,BA=5.64,STAT.b=0.0
25/09/2022,10:57:44,TEMP=22.5,BA=5.64,STAT.D=0.0,ExtBa=14.49
25/09/2022,11:12:36,TEMP=22.7,BA=5.64,STAT.b=0.0
25/09/2022,11:27:29,TEMP=21.8,BA=5.64,STAT.F,ExtBa=14.36
25/09/2022,11:37:32,TEMP=22.2,BA=5.56,STAT.b=0.0
25/09/2022,11:42:46,TEMP=22.1,BA=5.64,STAT.D=0.0,ExtBa=13.46
25/09/2022,11:44:17,TEMP=22.3,BA=5.64,STAT.b=0.0
25/09/2022,11:57:44,TEMP=21.7,BA=5.64,STAT.D=0.0,ExtBa=13.61
25/09/2022,11:59:12,TEMP=21.8,BA=5.64,STAT.b=0.0
25/09/2022,12:12:43,TEMP=21.3,BA=5.64,STAT.D=0.0,ExtBa=13.64
25/09/2022,12:27:29,TEMP=21.2,BA=5.64,STAT.F,ExtBa=13.56
25/09/2022,12:28:56,TEMP=21.4,BA=5.64,STAT.b=0.0
25/09/2022,12:42:43,TEMP=21.5,BA=5.64,STAT.D=0.0,ExtBa=13.76
25/09/2022,12:57:27,TEMP=21.5,BA=5.64,STAT.D=0.0,ExtBa=13.73
25/09/2022,12:58:59,TEMP=21.6,BA=5.64,STAT.b=0.0
25/09/2022,13:12:43,TEMP=21.5,BA=5.64,STAT.D=0.0,ExtBa=13.71
25/09/2022,13:27:46,TEMP=21.8,BA=5.64,STAT.F,ExtBa=14.30
25/09/2022,13:38:18,TEMP=22.6,BA=5.56,STAT.b=0.0
25/09/2022,13:42:32,TEMP=22.8,BA=5.64,STAT.A=0.0,ExtBa=14.01
25/09/2022,13:58:36,TEMP=22.9,BA=5.64,STAT.A=0.0,ExtBa=14.19
25/09/2022,14:11:32,TEMP=22.2,BA=5.64,STAT.A=0.0,ExtBa=13.94
25/09/2022,14:13:01,TEMP=22.3,BA=5.64,STAT.b=0.0
25/09/2022,14:22:15,TEMP=22.0,BA=5.64,STAT.A=0.0,ExtBa=13.66
25/09/2022,14:31:02,TEMP=21.7,BA=5.64,STAT.C=0.0,ExtBa=13.51
25/09/2022,14:38:47,TEMP=21.5,BA=5.64,STAT.A=0.0,ExtBa=13.39
25/09/2022,14:45:31,TEMP=21.3,BA=5.48,STAT.A=0.0,ExtBa=13.31
25/09/2022,14:51:25,TEMP=21.2,BA=5.56,STAT.A=0.0,ExtBa=13.25
25/09/2022,14:52:52,TEMP=21.4,BA=5.56,STAT.b=0.0
25/09/2022,14:56:56,TEMP=21.2,BA=5.56,STAT.A=0.0,ExtBa=13.20
25/09/2022,14:58:23,TEMP=21.3,BA=5.56,STAT.b=0.0
25/09/2022,15:01:36,TEMP=21.2,BA=5.56,STAT.B=0.0,ExtBa=13.17
25/09/2022,15:03:03,TEMP=21.3,BA=5.56,STAT.b=0.0
25/09/2022,15:11:18,TEMP=21.1,BA=5.56,STAT.A=0.0,ExtBa=13.21
25/09/2022,15:18:43,TEMP=21.0,BA=5.56,STAT.A=0.0,ExtBa=13.23
25/09/2022,15:20:10,TEMP=21.1,BA=5.44,STAT.b=0.0
25/09/2022,15:25:14,TEMP=20.9,BA=5.44,STAT.A=0.0,ExtBa=13.20
25/09/2022,15:26:40,TEMP=21.0,BA=5.44,STAT.b=0.0
25/09/2022,15:30:22,TEMP=20.8,BA=5.40,STAT.A=0.0,ExtBa=13.18
25/09/2022,15:31:49,TEMP=20.9,BA=5.40,STAT.b=0.0
25/09/2022,15:35:00,TEMP=20.7,BA=5.40,STAT.A=0.0,ExtBa=13.17
25/09/2022,15:36:27,TEMP=20.8,BA=5.40,STAT.b=0.0
25/09/2022,15:38:24,TEMP=20.7,BA=5.40,STAT.A=0.0,ExtBa=13.16